Year,Month,Day,Hour,Minute,Value (Times are PST for temperature in C)
2018,10,24,00,00,11.30
2018,10,24,00,01,11.30
2018,10,24,00,02,11.20
2018,10,24,00,03,11.30
2018,10,24,00,04,11.30
2018,10,24,00,05,11.30
2018,10,24,00,06,11.30
2018,10,24,00,07,11.30
2018,10,24,00,08,11.40
2018,10,24,00,09,11.40
2018,10,24,00,10,11.40
2018,10,24,00,11,11.40
2018,10,24,00,12,11.40
2018,10,24,00,13,11.40
2018,10,24,00,14,11.40
2018,10,24,00,15,11.40
2018,10,24,00,16,11.40
2018,10,24,00,17,11.40
2018,10,24,00,18,11.40
2018,10,24,00,19,11.40
2018,10,24,00,20,11.40
2018,10,24,00,21,11.40
2018,10,24,00,22,11.40
2018,10,24,00,23,11.40
2018,10,24,00,24,11.50
2018,10,24,00,25,11.50
2018,10,24,00,26,11.50
2018,10,24,00,27,11.50
2018,10,24,00,28,11.50
2018,10,24,00,29,11.50
2018,10,24,00,30,11.40
2018,10,24,00,31,11.50
2018,10,24,00,32,11.50
2018,10,24,00,33,11.50
2018,10,24,00,34,11.50
2018,10,24,00,35,11.50
2018,10,24,00,36,11.40
2018,10,24,00,37,11.40
2018,10,24,00,38,11.50
2018,10,24,00,39,11.50
2018,10,24,00,40,11.50
2018,10,24,00,41,11.50
2018,10,24,00,42,11.50
2018,10,24,00,43,11.50
2018,10,24,00,44,11.50
2018,10,24,00,45,11.50
2018,10,24,00,46,11.60
2018,10,24,00,47,11.60
2018,10,24,00,48,11.60
2018,10,24,00,49,11.70
2018,10,24,00,50,11.70
2018,10,24,00,51,11.70
2018,10,24,00,52,11.80
2018,10,24,00,53,11.80
2018,10,24,00,54,11.80
2018,10,24,00,55,11.80
2018,10,24,00,56,11.80
2018,10,24,00,57,11.80
2018,10,24,00,58,11.80
2018,10,24,00,59,11.80
2018,10,24,01,00,11.80
2018,10,24,01,01,11.80
2018,10,24,01,02,11.80
2018,10,24,01,03,11.80
2018,10,24,01,04,11.80
2018,10,24,01,05,11.80
2018,10,24,01,06,11.80
2018,10,24,01,07,11.80
2018,10,24,01,08,11.80
2018,10,24,01,09,11.80
2018,10,24,01,10,11.80
2018,10,24,01,11,11.80
2018,10,24,01,12,11.80
2018,10,24,01,13,11.70
2018,10,24,01,14,11.70
2018,10,24,01,15,11.70
2018,10,24,01,16,11.70
2018,10,24,01,17,11.70
2018,10,24,01,18,11.70
2018,10,24,01,19,11.70
2018,10,24,01,20,11.70
2018,10,24,01,21,11.70
2018,10,24,01,22,11.70
2018,10,24,01,23,11.60
2018,10,24,01,24,11.60
2018,10,24,01,25,11.60
2018,10,24,01,26,11.60
2018,10,24,01,27,11.60
2018,10,24,01,28,11.60
2018,10,24,01,29,11.60
2018,10,24,01,30,11.60
2018,10,24,01,31,11.60
2018,10,24,01,32,11.50
2018,10,24,01,33,11.50
2018,10,24,01,34,11.50
2018,10,24,01,35,11.50
2018,10,24,01,36,11.40
2018,10,24,01,37,11.40
2018,10,24,01,38,11.40
2018,10,24,01,39,11.40
2018,10,24,01,40,11.40
2018,10,24,01,41,11.40
2018,10,24,01,42,11.40
2018,10,24,01,43,11.40
2018,10,24,01,44,11.40
2018,10,24,01,45,11.40
2018,10,24,01,46,11.40
2018,10,24,01,47,11.40
2018,10,24,01,48,11.40
2018,10,24,01,49,11.40
2018,10,24,01,50,11.40
2018,10,24,01,51,11.30
2018,10,24,01,52,11.30
2018,10,24,01,53,11.40
2018,10,24,01,54,11.40
2018,10,24,01,55,11.40
2018,10,24,01,56,11.50
2018,10,24,01,57,11.50
2018,10,24,01,58,11.50
2018,10,24,01,59,11.60
2018,10,24,02,00,11.60
2018,10,24,02,01,11.60
2018,10,24,02,02,11.70
2018,10,24,02,03,11.70
2018,10,24,02,04,11.70
2018,10,24,02,05,11.70
2018,10,24,02,06,11.70
2018,10,24,02,07,11.70
2018,10,24,02,08,11.70
2018,10,24,02,09,11.60
2018,10,24,02,10,11.60
2018,10,24,02,11,11.50
2018,10,24,02,12,11.50
2018,10,24,02,13,11.40
2018,10,24,02,14,11.40
2018,10,24,02,15,11.30
2018,10,24,02,16,11.30
2018,10,24,02,17,11.30
2018,10,24,02,18,11.30
2018,10,24,02,19,11.20
2018,10,24,02,20,11.20
2018,10,24,02,21,11.20
2018,10,24,02,22,11.20
2018,10,24,02,23,11.20
2018,10,24,02,24,11.20
2018,10,24,02,25,11.20
2018,10,24,02,26,11.10
2018,10,24,02,27,11.10
2018,10,24,02,28,11.10
2018,10,24,02,29,11.10
2018,10,24,02,30,11.10
2018,10,24,02,31,11.10
2018,10,24,02,32,11.10
2018,10,24,02,33,11.10
2018,10,24,02,34,11.10
2018,10,24,02,35,11.10
2018,10,24,02,36,11.10
2018,10,24,02,37,11.00
2018,10,24,02,38,10.90
2018,10,24,02,39,10.80
2018,10,24,02,40,10.70
2018,10,24,02,41,10.70
2018,10,24,02,42,10.60
2018,10,24,02,43,10.50
2018,10,24,02,44,10.50
2018,10,24,02,45,10.40
2018,10,24,02,46,10.30
2018,10,24,02,47,10.30
2018,10,24,02,48,10.30
2018,10,24,02,49,10.30
2018,10,24,02,50,10.20
2018,10,24,02,51,10.20
2018,10,24,02,52,10.20
2018,10,24,02,53,10.10
2018,10,24,02,54,10.10
2018,10,24,02,55,10.00
2018,10,24,02,56,10.00
2018,10,24,02,57,9.90
2018,10,24,02,58,9.80
2018,10,24,02,59,9.80
2018,10,24,03,00,9.80
2018,10,24,03,01,9.70
2018,10,24,03,02,9.70
2018,10,24,03,03,9.70
2018,10,24,03,04,9.70
2018,10,24,03,05,9.70
2018,10,24,03,06,9.60
2018,10,24,03,07,9.50
2018,10,24,03,08,9.50
2018,10,24,03,09,9.40
2018,10,24,03,10,9.40
2018,10,24,03,11,9.40
2018,10,24,03,12,9.40
2018,10,24,03,13,9.40
2018,10,24,03,14,9.40
2018,10,24,03,15,9.40
2018,10,24,03,16,9.40
2018,10,24,03,17,9.40
2018,10,24,03,18,9.40
2018,10,24,03,19,9.40
2018,10,24,03,20,9.40
2018,10,24,03,21,9.40
2018,10,24,03,22,9.40
2018,10,24,03,23,9.40
2018,10,24,03,24,9.40
2018,10,24,03,25,9.40
2018,10,24,03,26,9.40
2018,10,24,03,27,9.30
2018,10,24,03,28,9.30
2018,10,24,03,29,9.20
2018,10,24,03,30,9.20
2018,10,24,03,31,9.20
2018,10,24,03,32,9.20
2018,10,24,03,33,9.20
2018,10,24,03,34,9.20
2018,10,24,03,35,9.20
2018,10,24,03,36,9.10
2018,10,24,03,37,9.10
2018,10,24,03,38,9.10
2018,10,24,03,39,9.00
2018,10,24,03,40,9.00
2018,10,24,03,41,9.00
2018,10,24,03,42,9.00
2018,10,24,03,43,9.00
2018,10,24,03,44,9.00
2018,10,24,03,45,9.00
2018,10,24,03,46,9.00
2018,10,24,03,47,9.00
2018,10,24,03,48,9.00
2018,10,24,03,49,9.00
2018,10,24,03,50,9.00
2018,10,24,03,51,8.90
2018,10,24,03,52,8.90
2018,10,24,03,53,8.80
2018,10,24,03,54,8.80
2018,10,24,03,55,8.80
2018,10,24,03,56,8.90
2018,10,24,03,57,8.90
2018,10,24,03,58,9.00
2018,10,24,03,59,9.00
2018,10,24,04,00,8.90
2018,10,24,04,01,8.90
2018,10,24,04,02,8.90
2018,10,24,04,03,8.80
2018,10,24,04,04,8.80
2018,10,24,04,05,8.80
2018,10,24,04,06,8.80
2018,10,24,04,07,8.70
2018,10,24,04,08,8.70
2018,10,24,04,09,8.70
2018,10,24,04,10,8.70
2018,10,24,04,11,8.60
2018,10,24,04,12,8.60
2018,10,24,04,13,8.50
2018,10,24,04,14,8.50
2018,10,24,04,15,8.40
2018,10,24,04,16,8.40
2018,10,24,04,17,8.40
2018,10,24,04,18,8.40
2018,10,24,04,19,8.40
2018,10,24,04,20,8.40
2018,10,24,04,21,8.50
2018,10,24,04,22,8.50
2018,10,24,04,23,8.50
2018,10,24,04,24,8.40
2018,10,24,04,25,8.40
2018,10,24,04,26,8.30
2018,10,24,04,27,8.30
2018,10,24,04,28,8.30
2018,10,24,04,29,8.30
2018,10,24,04,30,8.20
2018,10,24,04,31,8.20
2018,10,24,04,32,8.30
2018,10,24,04,33,8.30
2018,10,24,04,34,8.30
2018,10,24,04,35,8.40
2018,10,24,04,36,8.40
2018,10,24,04,37,8.40
2018,10,24,04,38,8.40
2018,10,24,04,39,8.40
2018,10,24,04,40,8.40
2018,10,24,04,41,8.40
2018,10,24,04,42,8.30
2018,10,24,04,43,8.30
2018,10,24,04,44,8.20
2018,10,24,04,45,8.20
2018,10,24,04,46,8.20
2018,10,24,04,47,8.20
2018,10,24,04,48,8.20
2018,10,24,04,49,8.20
2018,10,24,04,50,8.20
2018,10,24,04,51,8.20
2018,10,24,04,52,8.20
2018,10,24,04,53,8.30
2018,10,24,04,54,8.30
2018,10,24,04,55,8.40
2018,10,24,04,56,8.40
2018,10,24,04,57,8.50
2018,10,24,04,58,8.50
2018,10,24,04,59,8.50
2018,10,24,05,00,8.50
2018,10,24,05,01,8.40
2018,10,24,05,02,8.40
2018,10,24,05,03,8.30
2018,10,24,05,04,8.30
2018,10,24,05,05,8.40
2018,10,24,05,06,8.40
2018,10,24,05,07,8.50
2018,10,24,05,08,8.50
2018,10,24,05,09,8.50
2018,10,24,05,10,8.50
2018,10,24,05,11,8.40
2018,10,24,05,12,8.40
2018,10,24,05,13,8.40
2018,10,24,05,14,8.40
2018,10,24,05,15,8.40
2018,10,24,05,16,8.40
2018,10,24,05,17,8.30
2018,10,24,05,18,8.30
2018,10,24,05,19,8.30
2018,10,24,05,20,8.20
2018,10,24,05,21,8.20
2018,10,24,05,22,8.20
2018,10,24,05,23,8.10
2018,10,24,05,24,8.10
2018,10,24,05,25,8.00
2018,10,24,05,26,8.00
2018,10,24,05,27,8.00
2018,10,24,05,28,7.90
2018,10,24,05,29,7.90
2018,10,24,05,30,7.90
2018,10,24,05,31,7.80
2018,10,24,05,32,7.80
2018,10,24,05,33,7.90
2018,10,24,05,34,7.90
2018,10,24,05,35,8.00
2018,10,24,05,36,8.10
2018,10,24,05,37,8.00
2018,10,24,05,38,8.00
2018,10,24,05,39,7.90
2018,10,24,05,40,7.90
2018,10,24,05,41,7.90
2018,10,24,05,42,7.90
2018,10,24,05,43,7.90
2018,10,24,05,44,7.90
2018,10,24,05,45,7.90
2018,10,24,05,46,7.90
2018,10,24,05,47,7.90
2018,10,24,05,48,7.90
2018,10,24,05,49,7.90
2018,10,24,05,50,7.90
2018,10,24,05,51,7.90
2018,10,24,05,52,7.80
2018,10,24,05,53,7.80
2018,10,24,05,54,7.80
2018,10,24,05,55,7.80
2018,10,24,05,56,7.80
2018,10,24,05,57,7.80
2018,10,24,05,58,7.70
2018,10,24,05,59,7.70
2018,10,24,06,00,7.70
2018,10,24,06,01,7.70
2018,10,24,06,02,7.70
2018,10,24,06,03,7.70
2018,10,24,06,04,7.70
2018,10,24,06,05,7.70
2018,10,24,06,06,7.70
2018,10,24,06,07,7.70
2018,10,24,06,08,7.70
2018,10,24,06,09,7.60
2018,10,24,06,10,7.60
2018,10,24,06,11,7.60
2018,10,24,06,12,7.50
2018,10,24,06,13,7.50
2018,10,24,06,14,7.60
2018,10,24,06,15,7.60
2018,10,24,06,16,7.70
2018,10,24,06,17,7.70
2018,10,24,06,18,7.70
2018,10,24,06,19,7.70
2018,10,24,06,20,7.70
2018,10,24,06,21,7.70
2018,10,24,06,22,7.60
2018,10,24,06,23,7.60
2018,10,24,06,24,7.60
2018,10,24,06,25,7.60
2018,10,24,06,26,7.70
2018,10,24,06,27,7.70
2018,10,24,06,28,7.60
2018,10,24,06,29,7.60
2018,10,24,06,30,7.60
2018,10,24,06,31,7.50
2018,10,24,06,32,7.50
2018,10,24,06,33,7.50
2018,10,24,06,34,7.40
2018,10,24,06,35,7.50
2018,10,24,06,36,7.50
2018,10,24,06,37,7.50
2018,10,24,06,38,7.50
2018,10,24,06,39,7.60
2018,10,24,06,40,7.60
2018,10,24,06,41,7.60
2018,10,24,06,42,7.70
2018,10,24,06,43,7.70
2018,10,24,06,44,7.70
2018,10,24,06,45,7.70
2018,10,24,06,46,7.60
2018,10,24,06,47,7.50
2018,10,24,06,48,7.50
2018,10,24,06,49,7.40
2018,10,24,06,50,7.30
2018,10,24,06,51,7.30
2018,10,24,06,52,7.30
2018,10,24,06,53,7.30
2018,10,24,06,54,7.30
2018,10,24,06,55,7.30
2018,10,24,06,56,7.30
2018,10,24,06,57,7.30
2018,10,24,06,58,7.40
2018,10,24,06,59,7.40
2018,10,24,07,00,7.40
2018,10,24,07,01,7.30
2018,10,24,07,02,7.30
2018,10,24,07,03,7.30
2018,10,24,07,04,7.30
2018,10,24,07,05,7.30
2018,10,24,07,06,7.30
2018,10,24,07,07,7.30
2018,10,24,07,08,7.30
2018,10,24,07,09,7.30
2018,10,24,07,10,7.30
2018,10,24,07,11,7.30
2018,10,24,07,12,7.30
2018,10,24,07,13,7.30
2018,10,24,07,14,7.30
2018,10,24,07,15,7.30
2018,10,24,07,16,7.30
2018,10,24,07,17,7.30
2018,10,24,07,18,7.30
2018,10,24,07,19,7.30
2018,10,24,07,20,7.30
2018,10,24,07,21,7.30
2018,10,24,07,22,7.20
2018,10,24,07,23,7.20
2018,10,24,07,24,7.20
2018,10,24,07,25,7.20
2018,10,24,07,26,7.20
2018,10,24,07,27,7.20
2018,10,24,07,28,7.20
2018,10,24,07,29,7.20
2018,10,24,07,30,7.20
2018,10,24,07,31,7.20
2018,10,24,07,32,7.20
2018,10,24,07,33,7.20
2018,10,24,07,34,7.20
2018,10,24,07,35,7.20
2018,10,24,07,36,7.20
2018,10,24,07,37,7.20
2018,10,24,07,38,7.20
2018,10,24,07,39,7.20
2018,10,24,07,40,7.20
2018,10,24,07,41,7.20
2018,10,24,07,42,7.20
2018,10,24,07,43,7.20
2018,10,24,07,44,7.30
2018,10,24,07,45,7.30
2018,10,24,07,46,7.30
2018,10,24,07,47,7.30
2018,10,24,07,48,7.30
2018,10,24,07,49,7.30
2018,10,24,07,50,7.30
2018,10,24,07,51,7.30
2018,10,24,07,52,7.30
2018,10,24,07,53,7.30
2018,10,24,07,54,7.30
2018,10,24,07,55,7.30
2018,10,24,07,56,7.30
2018,10,24,07,57,7.30
2018,10,24,07,58,7.30
2018,10,24,07,59,7.30
2018,10,24,08,00,7.30
2018,10,24,08,01,7.30
2018,10,24,08,02,7.30
2018,10,24,08,03,7.30
2018,10,24,08,04,7.30
2018,10,24,08,05,7.30
2018,10,24,08,06,7.30
2018,10,24,08,07,7.30
2018,10,24,08,08,7.30
2018,10,24,08,09,7.30
2018,10,24,08,10,7.30
2018,10,24,08,11,7.40
2018,10,24,08,12,7.40
2018,10,24,08,13,7.40
2018,10,24,08,14,7.50
2018,10,24,08,15,7.50
2018,10,24,08,16,7.50
2018,10,24,08,17,7.60
2018,10,24,08,18,7.60
2018,10,24,08,19,7.60
2018,10,24,08,20,7.60
2018,10,24,08,21,7.60
2018,10,24,08,22,7.60
2018,10,24,08,23,7.60
2018,10,24,08,24,7.60
2018,10,24,08,25,7.70
2018,10,24,08,26,7.70
2018,10,24,08,27,7.70
2018,10,24,08,28,7.70
2018,10,24,08,29,7.70
2018,10,24,08,30,7.70
2018,10,24,08,31,7.70
2018,10,24,08,32,7.70
2018,10,24,08,33,7.70
2018,10,24,08,34,7.70
2018,10,24,08,35,7.70
2018,10,24,08,36,7.70
2018,10,24,08,37,7.70
2018,10,24,08,38,7.70
2018,10,24,08,39,7.70
2018,10,24,08,40,7.80
2018,10,24,08,41,7.80
2018,10,24,08,42,7.80
2018,10,24,08,43,7.80
2018,10,24,08,44,7.90
2018,10,24,08,45,7.90
2018,10,24,08,46,7.90
2018,10,24,08,47,8.00
2018,10,24,08,48,8.00
2018,10,24,10,06,9.50
2018,10,24,10,07,9.50
2018,10,24,10,08,9.50
2018,10,24,10,09,9.50
2018,10,24,10,10,9.50
2018,10,24,10,11,9.60
2018,10,24,10,12,9.60
2018,10,24,10,13,9.60
2018,10,24,10,14,9.60
2018,10,24,10,15,9.70
2018,10,24,10,16,9.70
2018,10,24,10,17,9.70
2018,10,24,10,18,9.80
2018,10,24,10,19,9.80
2018,10,24,10,20,9.80
2018,10,24,10,21,9.80
2018,10,24,10,22,9.80
2018,10,24,10,23,9.80
2018,10,24,10,24,9.80
2018,10,24,10,25,9.80
2018,10,24,10,26,9.90
2018,10,24,10,27,9.90
2018,10,24,10,28,9.90
2018,10,24,10,29,9.90
2018,10,24,10,30,9.90
2018,10,24,10,31,9.90
2018,10,24,10,32,9.90
2018,10,24,10,33,10.00
2018,10,24,10,34,10.00
2018,10,24,10,35,10.00
2018,10,24,10,36,10.10
2018,10,24,10,37,10.10
2018,10,24,10,38,10.10
2018,10,24,10,39,10.10
2018,10,24,10,40,10.10
2018,10,24,10,41,10.10
2018,10,24,10,42,10.10
2018,10,24,10,43,10.10
2018,10,24,10,44,10.10
2018,10,24,10,45,10.10
2018,10,24,10,46,10.10
2018,10,24,10,47,10.10
2018,10,24,10,48,10.10
2018,10,24,10,49,10.10
2018,10,24,10,50,10.10
2018,10,24,10,51,10.10
2018,10,24,10,52,10.10
2018,10,24,10,53,10.10
2018,10,24,10,54,10.10
2018,10,24,10,55,10.10
2018,10,24,10,56,10.10
2018,10,24,10,57,10.10
2018,10,24,10,58,10.20
2018,10,24,10,59,10.20
2018,10,24,11,00,10.20
2018,10,24,11,01,10.20
2018,10,24,11,02,10.20
2018,10,24,11,03,10.20
2018,10,24,11,04,10.20
2018,10,24,11,05,10.20
2018,10,24,11,06,10.20
2018,10,24,11,07,10.20
2018,10,24,11,08,10.20
2018,10,24,11,09,10.30
2018,10,24,11,10,10.30
2018,10,24,11,11,10.30
2018,10,24,11,12,10.30
2018,10,24,11,13,10.30
2018,10,24,11,14,10.30
2018,10,24,11,15,10.30
2018,10,24,11,16,10.30
2018,10,24,11,17,10.40
2018,10,24,11,18,10.40
2018,10,24,11,19,10.40
2018,10,24,11,20,10.40
2018,10,24,11,21,10.40
2018,10,24,11,22,10.40
2018,10,24,11,23,10.50
2018,10,24,11,24,10.50
2018,10,24,11,25,10.60
2018,10,24,11,26,10.60
2018,10,24,11,27,10.60
2018,10,24,11,28,10.70
2018,10,24,11,29,10.70
2018,10,24,11,30,10.70
2018,10,24,11,31,10.70
2018,10,24,11,32,10.70
2018,10,24,11,33,10.70
2018,10,24,11,34,10.80
2018,10,24,11,35,10.80
2018,10,24,11,36,10.80
2018,10,24,11,37,10.90
2018,10,24,11,38,10.90
2018,10,24,11,39,11.00
2018,10,24,11,40,11.00
2018,10,24,11,41,11.10
2018,10,24,11,42,11.10
2018,10,24,11,43,11.20
2018,10,24,11,44,11.20
2018,10,24,11,45,11.30
2018,10,24,11,46,11.40
2018,10,24,11,47,11.50
2018,10,24,11,48,11.60
2018,10,24,11,49,11.70
2018,10,24,11,50,11.80
2018,10,24,11,51,11.80
2018,10,24,11,52,11.90
2018,10,24,11,53,11.90
2018,10,24,11,54,12.00
2018,10,24,11,55,12.10
2018,10,24,11,56,12.20
2018,10,24,11,57,12.30
2018,10,24,11,58,12.30
2018,10,24,11,59,12.30
2018,10,24,12,00,12.30
2018,10,24,12,01,12.30
2018,10,24,12,02,12.40
2018,10,24,12,03,12.40
2018,10,24,12,04,12.50
2018,10,24,12,05,12.60
2018,10,24,12,06,12.70
2018,10,24,12,07,12.80
2018,10,24,12,08,12.90
2018,10,24,12,09,13.00
2018,10,24,12,10,13.10
2018,10,24,12,11,13.20
2018,10,24,12,12,13.30
2018,10,24,12,13,13.40
2018,10,24,12,14,13.40
2018,10,24,12,15,13.40
2018,10,24,12,16,13.40
2018,10,24,12,17,13.50
2018,10,24,12,18,13.50
2018,10,24,12,19,13.60
2018,10,24,12,20,13.60
2018,10,24,12,21,13.70
2018,10,24,12,22,13.70
2018,10,24,12,23,13.80
2018,10,24,12,24,13.80
2018,10,24,12,25,13.70
2018,10,24,12,26,13.70
2018,10,24,12,27,13.60
2018,10,24,12,28,13.40
2018,10,24,12,29,13.30
2018,10,24,12,30,13.30
2018,10,24,12,31,13.20
2018,10,24,12,32,13.10
2018,10,24,12,33,13.00
2018,10,24,12,34,12.90
2018,10,24,12,35,12.90
2018,10,24,12,36,12.80
2018,10,24,12,37,12.80
2018,10,24,12,38,12.70
2018,10,24,12,39,12.70
2018,10,24,12,40,12.70
2018,10,24,12,41,12.60
2018,10,24,12,42,12.60
2018,10,24,12,43,12.60
2018,10,24,12,44,12.60
2018,10,24,12,45,12.50
2018,10,24,12,46,12.50
2018,10,24,12,47,12.40
2018,10,24,12,48,12.40
2018,10,24,12,49,12.40
2018,10,24,12,50,12.40
2018,10,24,12,51,12.40
2018,10,24,12,52,12.40
2018,10,24,12,53,12.40
2018,10,24,12,54,12.40
2018,10,24,12,55,12.40
2018,10,24,12,56,12.40
2018,10,24,12,57,12.40
2018,10,24,12,58,12.40
2018,10,24,12,59,12.30
2018,10,24,13,00,12.30
2018,10,24,13,01,12.40
2018,10,24,13,02,12.40
2018,10,24,13,03,12.40
2018,10,24,13,04,12.40
2018,10,24,13,05,12.40
2018,10,24,13,06,12.40
2018,10,24,13,07,12.40
2018,10,24,13,08,12.40
2018,10,24,13,09,12.50
2018,10,24,13,10,12.50
2018,10,24,13,11,12.50
2018,10,24,13,12,12.50
2018,10,24,13,13,12.50
2018,10,24,13,14,12.50
2018,10,24,13,15,12.50
2018,10,24,13,16,12.50
2018,10,24,13,17,12.50
2018,10,24,13,18,12.40
2018,10,24,13,19,12.40
2018,10,24,13,20,12.40
2018,10,24,13,21,12.40
2018,10,24,13,22,12.40
2018,10,24,13,23,12.30
2018,10,24,13,24,12.30
2018,10,24,13,25,12.30
2018,10,24,13,26,12.30
2018,10,24,13,27,12.40
2018,10,24,13,28,12.40
2018,10,24,13,29,12.40
2018,10,24,13,30,12.40
2018,10,24,13,31,12.50
2018,10,24,13,32,12.50
2018,10,24,13,33,12.50
2018,10,24,13,34,12.50
2018,10,24,13,35,12.60
2018,10,24,13,36,12.60
2018,10,24,13,37,12.60
2018,10,24,13,38,12.70
2018,10,24,13,39,12.70
2018,10,24,13,40,12.80
2018,10,24,13,41,12.80
2018,10,24,13,42,12.90
2018,10,24,13,43,12.90
2018,10,24,13,44,12.90
2018,10,24,13,45,13.00
2018,10,24,13,46,13.00
2018,10,24,13,47,13.10
2018,10,24,13,48,13.10
2018,10,24,13,49,13.10
2018,10,24,13,50,13.10
2018,10,24,13,51,13.10
2018,10,24,13,52,13.10
2018,10,24,13,53,13.10
2018,10,24,13,54,13.10
2018,10,24,13,55,13.20
2018,10,24,13,56,13.20
2018,10,24,13,57,13.20
2018,10,24,13,58,13.20
2018,10,24,13,59,13.30
2018,10,24,14,00,13.20
2018,10,24,14,01,13.20
2018,10,24,14,02,13.20
2018,10,24,14,03,13.20
2018,10,24,14,04,13.20
2018,10,24,14,05,13.10
2018,10,24,14,06,13.10
2018,10,24,14,07,13.10
2018,10,24,14,08,13.10
2018,10,24,14,09,13.10
2018,10,24,14,10,13.00
2018,10,24,14,11,13.00
2018,10,24,14,12,12.90
2018,10,24,14,13,12.90
2018,10,24,14,14,12.80
2018,10,24,14,15,12.80
2018,10,24,14,16,12.70
2018,10,24,14,17,12.70
2018,10,24,14,18,12.60
2018,10,24,14,19,12.60
2018,10,24,14,20,12.60
2018,10,24,14,21,12.60
2018,10,24,14,22,12.50
2018,10,24,14,23,12.50
2018,10,24,14,24,12.40
2018,10,24,14,25,12.40
2018,10,24,14,26,12.40
2018,10,24,14,27,12.40
2018,10,24,14,28,12.40
2018,10,24,14,29,12.40
2018,10,24,14,30,12.40
2018,10,24,14,31,12.40
2018,10,24,14,32,12.40
2018,10,24,14,33,12.40
2018,10,24,14,34,12.40
2018,10,24,14,35,12.40
2018,10,24,14,36,12.40
2018,10,24,14,37,12.40
2018,10,24,14,38,12.40
2018,10,24,14,39,12.40
2018,10,24,14,40,12.40
2018,10,24,14,41,12.40
2018,10,24,14,42,12.40
2018,10,24,14,43,12.40
2018,10,24,14,44,12.40
2018,10,24,14,45,12.40
2018,10,24,14,46,12.40
2018,10,24,14,47,12.40
2018,10,24,14,48,12.40
2018,10,24,14,49,12.40
2018,10,24,14,50,12.30
2018,10,24,14,51,12.30
2018,10,24,14,52,12.30
2018,10,24,14,53,12.30
2018,10,24,14,54,12.30
2018,10,24,14,55,12.30
2018,10,24,14,56,12.30
2018,10,24,14,57,12.30
2018,10,24,14,58,12.30
2018,10,24,14,59,12.30
2018,10,24,15,00,12.30
2018,10,24,15,01,12.30
2018,10,24,15,02,12.30
2018,10,24,15,03,12.30
2018,10,24,15,04,12.30
2018,10,24,15,05,12.30
2018,10,24,15,06,12.30
2018,10,24,15,07,12.30
2018,10,24,15,08,12.30
2018,10,24,15,09,12.30
2018,10,24,15,10,12.30
2018,10,24,15,11,12.30
2018,10,24,15,12,12.30
2018,10,24,15,13,12.30
2018,10,24,15,14,12.30
2018,10,24,15,15,12.30
2018,10,24,15,16,12.30
2018,10,24,15,17,12.30
2018,10,24,15,18,12.20
2018,10,24,15,19,12.20
2018,10,24,15,20,12.20
2018,10,24,15,21,12.20
2018,10,24,15,22,12.20
2018,10,24,15,23,12.20
2018,10,24,15,24,12.20
2018,10,24,15,25,12.20
2018,10,24,15,26,12.20
2018,10,24,15,27,12.20
2018,10,24,15,28,12.20
2018,10,24,15,29,12.20
2018,10,24,15,30,12.20
2018,10,24,15,31,12.20
2018,10,24,15,32,12.20
2018,10,24,15,33,12.20
2018,10,24,15,34,12.20
2018,10,24,15,35,12.20
2018,10,24,15,36,12.20
2018,10,24,15,37,12.20
2018,10,24,15,38,12.20
2018,10,24,15,39,12.20
2018,10,24,15,40,12.20
2018,10,24,15,41,12.20
2018,10,24,15,42,12.20
2018,10,24,15,43,12.20
2018,10,24,15,44,12.20
2018,10,24,15,45,12.20
2018,10,24,15,46,12.20
2018,10,24,15,47,12.20
2018,10,24,15,48,12.20
2018,10,24,15,49,12.10
2018,10,24,15,50,12.10
2018,10,24,15,51,12.10
2018,10,24,15,52,12.10
2018,10,24,15,53,12.10
2018,10,24,15,54,12.10
2018,10,24,15,55,12.10
2018,10,24,15,56,12.10
2018,10,24,15,57,12.10
2018,10,24,15,58,12.10
2018,10,24,15,59,12.10
2018,10,24,16,00,12.10
2018,10,24,16,01,12.00
2018,10,24,16,02,12.00
2018,10,24,16,03,12.00
2018,10,24,16,04,12.00
2018,10,24,16,05,11.90
2018,10,24,16,06,11.90
2018,10,24,16,07,11.90
2018,10,24,16,08,11.90
2018,10,24,16,09,11.90
2018,10,24,16,10,11.90
2018,10,24,16,11,11.90
2018,10,24,16,12,11.90
2018,10,24,16,13,11.90
2018,10,24,16,14,11.90
2018,10,24,16,15,11.90
2018,10,24,16,16,11.90
2018,10,24,16,17,11.90
2018,10,24,16,18,11.90
2018,10,24,16,19,11.90
2018,10,24,16,20,11.90
2018,10,24,16,21,11.90
2018,10,24,16,22,11.90
2018,10,24,16,23,11.90
2018,10,24,16,24,11.90
2018,10,24,16,25,11.90
2018,10,24,16,26,11.90
2018,10,24,16,27,11.90
2018,10,24,16,28,11.90
2018,10,24,16,29,11.90
2018,10,24,16,30,11.90
2018,10,24,16,31,11.90
2018,10,24,16,32,11.90
2018,10,24,16,33,11.90
2018,10,24,16,34,11.90
2018,10,24,16,35,11.90
2018,10,24,16,36,11.90
2018,10,24,16,37,11.90
2018,10,24,16,38,11.90
2018,10,24,16,39,11.90
2018,10,24,16,40,11.90
2018,10,24,16,41,11.90
2018,10,24,16,42,11.90
2018,10,24,16,43,12.00
2018,10,24,16,44,12.00
2018,10,24,16,45,12.00
2018,10,24,16,46,12.00
2018,10,24,16,47,12.00
2018,10,24,16,48,12.00
2018,10,24,16,49,12.00
2018,10,24,16,50,12.00
2018,10,24,16,51,12.00
2018,10,24,16,52,12.00
2018,10,24,16,53,12.00
2018,10,24,16,54,12.00
2018,10,24,16,55,12.00
2018,10,24,16,56,11.90
2018,10,24,16,57,11.90
2018,10,24,16,58,11.90
2018,10,24,16,59,11.90
2018,10,24,17,00,11.90
2018,10,24,17,01,11.90
2018,10,24,17,02,11.90
2018,10,24,17,03,11.90
2018,10,24,17,04,11.90
2018,10,24,17,05,11.90
2018,10,24,17,06,11.90
2018,10,24,17,07,11.90
2018,10,24,17,08,11.90
2018,10,24,17,09,11.90
2018,10,24,17,10,11.90
2018,10,24,17,11,11.90
2018,10,24,17,12,11.90
2018,10,24,17,13,11.90
2018,10,24,17,14,11.90
2018,10,24,17,15,11.90
2018,10,24,17,16,11.90
2018,10,24,17,17,11.90
2018,10,24,17,18,11.90
2018,10,24,17,19,11.90
2018,10,24,17,20,11.90
2018,10,24,17,21,11.90
2018,10,24,17,22,11.90
2018,10,24,17,23,11.90
2018,10,24,17,24,11.90
2018,10,24,17,25,11.90
2018,10,24,17,26,11.90
2018,10,24,17,27,11.90
2018,10,24,17,28,11.90
2018,10,24,17,29,11.90
2018,10,24,17,30,11.90
2018,10,24,17,31,11.90
2018,10,24,17,32,11.90
2018,10,24,17,33,11.90
2018,10,24,17,34,11.90
2018,10,24,17,35,11.90
2018,10,24,17,36,11.90
2018,10,24,17,37,11.90
2018,10,24,17,38,11.90
2018,10,24,17,39,11.90
2018,10,24,17,40,11.90
2018,10,24,17,41,11.90
2018,10,24,17,42,11.90
2018,10,24,17,43,11.90
2018,10,24,17,44,11.90
2018,10,24,17,45,11.90
2018,10,24,17,46,12.00
2018,10,24,17,47,12.00
2018,10,24,17,48,11.90
2018,10,24,17,49,11.90
2018,10,24,17,50,11.90
2018,10,24,17,51,11.90
2018,10,24,17,52,11.90
2018,10,24,17,53,11.90
2018,10,24,17,54,11.90
2018,10,24,17,55,11.90
2018,10,24,17,56,11.90
2018,10,24,17,57,11.90
2018,10,24,17,58,11.90
2018,10,24,17,59,11.90
2018,10,24,18,00,11.90
2018,10,24,18,01,11.90
2018,10,24,18,02,11.90
2018,10,24,18,03,11.90
2018,10,24,18,04,11.90
2018,10,24,18,05,11.80
2018,10,24,18,06,11.80
2018,10,24,18,07,11.80
2018,10,24,18,08,11.80
2018,10,24,18,09,11.70
2018,10,24,18,10,11.70
2018,10,24,18,11,11.70
2018,10,24,18,12,11.60
2018,10,24,18,13,11.60
2018,10,24,18,14,11.60
2018,10,24,18,15,11.60
2018,10,24,18,16,11.50
2018,10,24,18,17,11.50
2018,10,24,18,18,11.50
2018,10,24,18,19,11.50
2018,10,24,18,20,11.40
2018,10,24,18,21,11.40
2018,10,24,18,22,11.40
2018,10,24,18,23,11.40
2018,10,24,18,24,11.40
2018,10,24,18,25,11.40
2018,10,24,18,26,11.40
2018,10,24,18,27,11.50
2018,10,24,18,28,11.50
2018,10,24,18,29,11.50
2018,10,24,18,30,11.50
2018,10,24,18,31,11.50
2018,10,24,18,32,11.50
2018,10,24,18,33,11.50
2018,10,24,18,34,11.50
2018,10,24,18,35,11.50
2018,10,24,18,36,11.50
2018,10,24,18,37,11.50
2018,10,24,18,38,11.50
2018,10,24,18,39,11.50
2018,10,24,18,40,11.50
2018,10,24,18,41,11.50
2018,10,24,18,42,11.50
2018,10,24,18,43,11.50
2018,10,24,18,44,11.50
2018,10,24,18,45,11.50
2018,10,24,18,46,11.50
2018,10,24,18,47,11.50
2018,10,24,18,48,11.50
2018,10,24,18,49,11.50
2018,10,24,18,50,11.50
2018,10,24,18,51,11.50
2018,10,24,18,52,11.50